When you browse on this site, cookies collect data to enhance your experience and personalize the content and advertising you see.
Visit our Privacy Policy to learn more. By continuing to use the site, you agree to this use of cookies and data.
  • In Hungary
  • List of Countries
  • For 7 days
  • Water Temperature
  • Satellite Maps
  • Weather Map
  • News
  • Weather Widgets
  • user-avatar
    Login

    Hourly Weather Palmeira

    Today, 19 November, Monday

    Time Temperature Precipitation Wind Pressure Humidity
    00:00 +16°C° 0 mm 1 mps 684 mmHg 95%
    01:00 +16°C° 0 mm 1 mps 685 mmHg 96%
    02:00 +16°C° 0 mm 1 mps 685 mmHg 96%
    03:00 +16°C° 0 mm 2 mps 685 mmHg 96%
    04:00 +16°C° 0 mm 2 mps 685 mmHg 96%
    05:00 +16°C° 0 mm 2 mps 685 mmHg 95%
    06:00 +16°C° 0 mm 2 mps 685 mmHg 95%
    07:00 +17°C° 0 mm 2 mps 686 mmHg 87%
    08:00 +19°C° 0 mm 2 mps 687 mmHg 80%
    09:00 +20°C° 0 mm 3 mps 687 mmHg 72%
    10:00 +21°C° 0 mm 2 mps 687 mmHg 68%
    11:00 +23°C° 0 mm 2 mps 688 mmHg 64%
    12:00 +25°C° 0 mm 2 mps 688 mmHg 61%
    13:00 +24°C° 0 mm 3 mps 687 mmHg 63%
    14:00 +24°C° 0 mm 3 mps 687 mmHg 65%
    15:00 +22°C° 0 mm 3 mps 686 mmHg 66%
    16:00 +21°C° 0 mm 3 mps 686 mmHg 70%
    17:00 +20°C° 0 mm 3 mps 686 mmHg 73%
    18:00 +19°C° 0 mm 3 mps 686 mmHg 76%
    19:00 +18°C° 0 mm 3 mps 686 mmHg 80%
    20:00 +16°C° 0 mm 3 mps 686 mmHg 84%
    21:00 +14°C° 0 mm 3 mps 687 mmHg 88%
    22:00 +14°C° 0 mm 2 mps 687 mmHg 90%
    23:00 +13°C° 0 mm 2 mps 687 mmHg 92%

    Tomorrow, 20 November, Tuesday

    Time Temperature Precipitation Wind Pressure Humidity
    00:00 +13°C° 0 mm 2 mps 687 mmHg 94%
    01:00 +13°C° 0 mm 2 mps 687 mmHg 94%
    02:00 +13°C° 0 mm 2 mps 687 mmHg 93%
    03:00 +13°C° 0 mm 2 mps 687 mmHg 93%
    04:00 +13°C° 0 mm 2 mps 687 mmHg 91%
    05:00 +13°C° 0 mm 2 mps 687 mmHg 90%
    06:00 +13°C° 0 mm 2 mps 687 mmHg 88%
    07:00 +15°C° 0 mm 2 mps 688 mmHg 83%
    08:00 +16°C° 0 mm 2 mps 688 mmHg 78%
    09:00 +17°C° 0 mm 2 mps 689 mmHg 73%
    10:00 +19°C° 0 mm 2 mps 689 mmHg 66%
    11:00 +21°C° 0 mm 2 mps 689 mmHg 59%
    12:00 +24°C° 0 mm 2 mps 689 mmHg 52%
    13:00 +25°C° 0 mm 2 mps 689 mmHg 51%
    14:00 +25°C° 0 mm 2 mps 688 mmHg 49%
    15:00 +26°C° 0 mm 2 mps 688 mmHg 48%
    16:00 +25°C° 0 mm 2 mps 687 mmHg 54%
    17:00 +23°C° 0 mm 2 mps 687 mmHg 60%
    18:00 +21°C° 0 mm 2 mps 687 mmHg 66%
    19:00 +19°C° 0 mm 2 mps 687 mmHg 73%
    20:00 +17°C° 0 mm 3 mps 688 mmHg 80%
    21:00 +14°C° 0 mm 3 mps 688 mmHg 86%
    22:00 +14°C° 0 mm 2 mps 688 mmHg 89%
    23:00 +13°C° 0 mm 2 mps 688 mmHg 92%

    Day after tomorrow, 21 November, Wednesday

    Time Temperature Precipitation Wind Pressure Humidity
    00:00 +12°C° 0 mm 2 mps 688 mmHg 95%
    01:00 +12°C° 0 mm 2 mps 688 mmHg 95%
    02:00 +11°C° 0 mm 1 mps 687 mmHg 96%
    03:00 +11°C° 0 mm 1 mps 687 mmHg 96%
    04:00 +11°C° 0 mm 1 mps 687 mmHg 96%
    05:00 +11°C° 0 mm 1 mps 687 mmHg 95%
    06:00 +11°C° 0 mm 1 mps 687 mmHg 95%
    07:00 +14°C° 0 mm 2 mps 688 mmHg 87%
    08:00 +17°C° 0 mm 2 mps 689 mmHg 79%
    09:00 +19°C° 0 mm 2 mps 690 mmHg 70%
    10:00 +21°C° 0 mm 2 mps 690 mmHg 66%
    11:00 +24°C° 0 mm 2 mps 689 mmHg 61%
    12:00 +26°C° 0 mm 2 mps 689 mmHg 57%
    13:00 +26°C° 0 mm 2 mps 689 mmHg 57%
    14:00 +26°C° 0 mm 2 mps 688 mmHg 56%
    15:00 +26°C° 0 mm 2 mps 688 mmHg 56%
    16:00 +25°C° 0 mm 2 mps 687 mmHg 61%
    17:00 +24°C° 0 mm 2 mps 687 mmHg 66%
    18:00 +23°C° 0 mm 2 mps 687 mmHg 71%
    19:00 +20°C° 0 mm 2 mps 687 mmHg 78%
    20:00 +19°C° 0 mm 2 mps 687 mmHg 85%
    21:00 +17°C° 0 mm 2 mps 687 mmHg 92%
    22:00 +17°C° 0 mm 2 mps 687 mmHg 93%
    23:00 +16°C° 0 mm 2 mps 687 mmHg 94%

    22 November, Thursday

    Time Temperature Precipitation Wind Pressure Humidity
    00:00 +16°C° 0 mm 2 mps 687 mmHg 95%
    01:00 +16°C° 0 mm 2 mps 687 mmHg 96%
    02:00 +16°C° 0 mm 2 mps 686 mmHg 96%
    03:00 +16°C° 0 mm 1 mps 686 mmHg 97%
    04:00 +16°C° 0 mm 1 mps 686 mmHg 96%
    05:00 +16°C° 0 mm 1 mps 686 mmHg 96%
    06:00 +16°C° 0 mm 1 mps 686 mmHg 96%
    07:00 +19°C° 0 mm 1 mps 687 mmHg 88%
    08:00 +20°C° 0 mm 2 mps 688 mmHg 80%
    09:00 +23°C° 0 mm 2 mps 688 mmHg 73%
    10:00 +24°C° 0.1 mm 2 mps 688 mmHg 68%
    11:00 +26°C° 0.1 mm 2 mps 688 mmHg 64%
    12:00 +27°C° 0.1 mm 2 mps 688 mmHg 60%
    13:00 +28°C° 0.2 mm 2 mps 687 mmHg 58%
    14:00 +28°C° 0.2 mm 1 mps 686 mmHg 55%
    15:00 +29°C° 0.2 mm 1 mps 686 mmHg 53%
    16:00 +28°C° 0.5 mm 1 mps 685 mmHg 61%
    17:00 +26°C° 0.5 mm 1 mps 685 mmHg 70%
    18:00 +25°C° 0.5 mm 1 mps 685 mmHg 78%
    19:00 +24°C° 0.1 mm 1 mps 685 mmHg 84%
    20:00 +21°C° 0.1 mm 2 mps 685 mmHg 89%
    21:00 +20°C° 0.1 mm 2 mps 686 mmHg 94%
    22:00 +19°C° 0.1 mm 2 mps 686 mmHg 95%
    23:00 +19°C° 0.1 mm 2 mps 685 mmHg 97%

    23 November, Friday

    Time Temperature Precipitation Wind Pressure Humidity
    00:00 +19°C° 0.1 mm 2 mps 685 mmHg 98%
    01:00 +19°C° 0 mm 1 mps 685 mmHg 98%
    02:00 +19°C° 0 mm 1 mps 684 mmHg 98%
    03:00 +19°C° 0 mm 1 mps 684 mmHg 98%
    04:00 +19°C° 0 mm 1 mps 684 mmHg 97%
    05:00 +19°C° 0 mm 1 mps 685 mmHg 97%
    06:00 +19°C° 0 mm 1 mps 685 mmHg 97%
    07:00 +21°C° 0.2 mm 1 mps 685 mmHg 90%
    08:00 +23°C° 0.2 mm 1 mps 686 mmHg 83%
    09:00 +25°C° 0.2 mm 2 mps 686 mmHg 76%
    10:00 +26°C° 0.8 mm 2 mps 686 mmHg 71%
    11:00 +27°C° 0.8 mm 2 mps 686 mmHg 66%
    12:00 +28°C° 0.8 mm 2 mps 685 mmHg 62%
    13:00 +29°C° 0.3 mm 1 mps 685 mmHg 60%
    14:00 +29°C° 0.3 mm 1 mps 684 mmHg 59%
    15:00 +30°C° 0.3 mm 1 mps 684 mmHg 58%
    16:00 +28°C° 0.9 mm 1 mps 683 mmHg 66%
    17:00 +26°C° 0.9 mm 1 mps 683 mmHg 75%
    18:00 +25°C° 0.9 mm 1 mps 683 mmHg 84%
    19:00 +23°C° 0.4 mm 1 mps 683 mmHg 87%
    20:00 +22°C° 0.4 mm 1 mps 684 mmHg 90%
    21:00 +21°C° 0.4 mm 1 mps 684 mmHg 93%
    22:00 +21°C° 0.1 mm 1 mps 684 mmHg 93%
    23:00 +20°C° 0.1 mm 1 mps 684 mmHg 94%

    24 November, Saturday

    Time Temperature Precipitation Wind Pressure Humidity
    00:00 +20°C° 0.1 mm 1 mps 684 mmHg 95%
    01:00 +20°C° 0.7 mm 1 mps 683 mmHg 96%
    02:00 +20°C° 0.7 mm 1 mps 683 mmHg 96%
    03:00 +20°C° 0.7 mm 1 mps 682 mmHg 97%
    04:00 +20°C° 1.1 mm 1 mps 683 mmHg 97%
    05:00 +20°C° 1.1 mm 1 mps 683 mmHg 97%
    06:00 +20°C° 1.1 mm 1 mps 683 mmHg 96%
    07:00 +20°C° 1.6 mm 1 mps 684 mmHg 96%
    08:00 +20°C° 1.6 mm 1 mps 684 mmHg 95%
    09:00 +19°C° 1.6 mm 2 mps 684 mmHg 95%
    10:00 +21°C° 1.9 mm 1 mps 684 mmHg 94%
    11:00 +21°C° 1.9 mm 1 mps 684 mmHg 94%
    12:00 +21°C° 1.9 mm 1 mps 684 mmHg 94%
    13:00 +21°C° 1.7 mm 1 mps 684 mmHg 94%
    14:00 +21°C° 1.7 mm 1 mps 683 mmHg 95%
    15:00 +21°C° 1.7 mm 1 mps 683 mmHg 95%
    16:00 +20°C° 2.6 mm 1 mps 682 mmHg 96%
    17:00 +20°C° 2.6 mm 1 mps 682 mmHg 97%
    18:00 +20°C° 2.6 mm 1 mps 682 mmHg 98%
    19:00 +19°C° 2.8 mm 2 mps 682 mmHg 98%
    20:00 +19°C° 2.8 mm 2 mps 683 mmHg 98%
    21:00 +18°C° 2.8 mm 2 mps 683 mmHg 98%
    22:00 +18°C° 2.3 mm 2 mps 683 mmHg 98%
    23:00 +18°C° 2.3 mm 2 mps 682 mmHg 98%
    Show more